Theta_e
340 339 336 336 335 333 330 327 326 323 319 318 317 316 319 320 317 320 319 319 319 319 318 318 317 316 314 314 318 320 321 320
339 338 337 336 335 330 328 325 323 320 318 319 320 320 320 322 324 322 321 321 320 319 318 318 317 316 315 314 319 320 321 320
333 332 332 332 333 328 324 323 320 319 320 322 327 328 329 329 326 322 322 322 322 320 319 318 317 322 320 318 320 320 319 320
331 331 330 328 325 327 327 324 324 327 328 328 330 330 331 330 327 324 324 323 322 320 319 318 322 322 321 321 320 320 319 319
327 328 327 324 325 325 325 324 328 330 332 332 331 330 331 331 329 331 330 327 325 323 323 322 323 322 321 320 320 319 318 318
326 326 326 326 324 323 324 325 328 329 331 333 333 332 332 331 329 328 328 326 324 323 322 324 323 321 320 319 318 317 317 316
327 326 327 329 328 329 330 330 331 331 332 331 329 329 328 328 329 328 326 325 324 323 322 321 320 320 318 318 317 316 316 316
328 328 328 330 332 332 331 330 329 329 329 331 332 331 331 329 327 326 325 322 321 320 319 318 318 317 316 316 315 315 315 314
330 329 331 331 330 328 326 325 324 323 323 326 328 329 327 327 325 323 320 318 317 316 316 315 315 315 314 314 313 313 312 311
331 331 331 329 326 325 325 322 320 319 320 319 321 320 320 321 319 317 315 313 313 313 313 313 312 311 310 310 309 307 306 307
331 332 329 325 322 320 321 322 317 319 318 315 314 314 313 315 315 314 313 312 312 312 310 309 308 307 306 305 305 304 305 305
332 331 325 323 321 322 321 320 317 319 316 314 314 314 314 313 313 313 312 311 311 309 308 306 305 304 303 304 304 304 303 304
331 328 327 327 326 325 322 321 318 315 314 314 314 313 313 313 312 312 311 309 308 307 305 303 303 302 302 302 303 302 303 305
330 329 328 328 325 325 323 319 316 315 314 314 313 313 312 311 312 310 309 307 305 304 303 303 302 301 301 301 303 301 301 303
331 328 327 325 322 320 319 317 316 314 315 314 313 312 311 311 309 308 306 304 303 303 302 301 301 300 300 300 301 301 300 299
325 324 324 321 319 317 317 315 316 316 315 314 313 312 310 308 306 304 304 303 303 302 301 301 300 300 299 298 298 298 300 300
323 322 320 319 318 317 317 317 316 315 314 312 310 309 307 306 304 303 304 303 302 302 301 301 300 299 299 298 298 298 298 298
319 318 318 317 317 317 317 316 314 312 310 308 307 305 304 303 303 303 303 302 302 301 301 300 299 299 298 298 298 297 297 297
319 318 317 317 317 315 313 311 309 308 308 307 305 303 303 303 302 302 301 301 301 301 301 300 299 298 298 298 297 296 296 295
319 318 317 316 314 311 309 308 308 307 306 304 304 303 303 303 302 301 300 300 300 300 300 300 299 298 298 297 296 296 295 294
Wind_Speed
17 15 15 14 12 11 11 9 9 9 9 9 10 10 10 10 9 9 8 7 6 6 6 7 8 9 10 11 12 13 11 9
16 15 14 11 11 11 10 9 9 9 10 9 10 10 9 10 8 5 4 3 3 4 4 5 6 7 9 10 8 8 9 9
16 15 12 12 10 10 9 9 9 9 9 10 8 6 5 7 3 2 2 3 4 4 5 6 7 5 7 11 8 9 10 9
13 12 11 11 10 10 9 8 8 7 6 5 4 4 2 3 1 3 4 6 6 7 7 8 7 9 7 10 10 11 12 11
13 13 11 10 11 10 9 8 7 6 5 3 3 2 2 2 3 6 2 5 7 6 7 8 8 9 10 10 11 12 14 13
14 13 12 10 10 9 8 7 6 5 4 2 2 3 2 3 4 4 4 5 7 8 10 8 9 9 9 9 11 12 13 14
14 14 13 12 10 9 8 6 3 4 3 3 6 7 6 4 4 4 3 6 6 8 9 11 11 12 12 13 13 14 15 16
15 14 12 11 10 8 8 10 10 9 9 9 7 6 5 3 4 3 4 4 6 7 8 12 13 15 15 15 17 18 19 19
16 15 13 12 13 12 12 11 12 13 10 8 7 4 2 3 3 3 4 6 6 7 9 12 14 17 18 20 20 21 21 22
15 14 16 17 17 16 13 8 11 15 13 6 5 5 6 4 4 4 2 4 5 8 11 14 16 19 21 21 21 22 23 22
15 17 19 18 16 11 13 12 10 15 2 5 5 6 5 6 4 4 5 7 8 9 12 14 17 19 20 20 21 23 21 21
17 20 20 19 14 9 8 13 8 5 5 5 4 3 3 3 2 3 6 7 8 10 12 13 15 18 20 21 22 21 23 19
19 19 17 13 9 6 8 6 10 11 8 6 4 2 2 3 4 6 7 9 9 10 12 14 16 18 20 22 22 27 23 17
18 15 16 11 9 8 11 14 13 11 8 6 3 2 3 4 6 8 8 11 10 11 13 15 17 17 20 22 11 20 21 16
17 15 14 12 12 12 11 9 8 8 6 5 1 3 4 6 7 8 8 9 11 12 13 14 18 18 17 19 12 11 20 23
15 15 14 12 11 10 11 12 6 5 2 1 3 4 6 7 8 8 9 11 13 13 15 16 17 19 21 20 20 22 11 12
15 14 12 11 7 7 7 4 2 2 2 3 6 8 8 8 9 9 11 14 15 16 17 17 18 21 21 21 20 20 19 16
13 13 12 10 8 6 4 4 1 2 3 7 8 9 8 9 10 12 15 17 17 18 17 18 19 19 19 20 18 17 15 14
13 12 11 10 9 7 6 4 2 3 5 9 8 11 12 12 13 16 18 20 20 18 21 20 19 18 18 18 15 16 14 14
12 12 11 9 8 7 5 2 3 5 7 10 12 13 13 14 16 17 20 21 21 19 20 21 17 17 19 17 15 14 14 13
Wind_Direction
134 135 147 149 151 147 150 148 141 135 132 126 126 123 116 101 100 98 86 84 70 63 51 42 37 31 31 29 33 37 15 15
132 139 142 140 144 153 150 144 142 137 132 131 122 116 103 84 80 80 74 60 37 25 10 8 9 8 9 12 18 4 358 350
138 143 145 146 148 148 147 145 141 133 132 132 113 126 117 117 126 40 29 2 339 333 324 325 330 311 343 353 349 349 335 337
139 134 142 144 141 143 140 143 138 142 144 147 169 120 85 66 62 336 335 340 324 326 320 318 316 301 296 333 331 332 313 324
140 137 138 143 133 147 143 147 149 153 149 179 118 169 159 260 255 249 316 323 293 314 296 299 326 316 315 316 319 317 316 314
141 138 136 132 138 141 139 142 148 160 163 208 236 260 256 273 299 333 288 329 324 305 310 318 315 315 313 314 312 312 310 307
144 142 136 132 131 125 117 111 116 58 332 352 317 305 304 299 322 323 349 325 312 317 316 315 312 307 312 307 307 306 302 302
145 141 138 132 120 114 101 74 72 54 28 360 332 332 329 332 337 329 333 338 341 331 326 319 314 309 305 303 304 301 301 301
153 146 140 133 116 101 90 73 56 34 23 15 6 4 15 23 50 26 5 5 357 334 321 315 309 306 304 305 303 302 303 301
156 148 134 119 121 118 109 67 11 349 1 42 46 64 71 79 81 66 23 8 351 334 320 318 312 312 308 306 306 306 302 299
155 147 132 129 131 125 134 148 313 339 0 88 86 75 74 72 63 31 354 339 334 329 328 322 317 314 310 309 309 303 301 300
164 156 159 147 135 151 161 171 227 204 191 127 127 109 70 30 13 10 359 338 327 328 324 320 317 314 312 310 306 305 299 295
152 160 177 177 182 185 176 163 161 176 165 151 151 102 57 4 346 343 342 328 322 321 322 320 320 319 317 311 310 297 304 284
162 179 175 189 180 165 156 157 165 165 164 155 137 111 40 356 350 329 323 321 316 315 319 318 316 320 316 314 312 311 300 348
168 169 175 174 156 148 149 143 154 174 182 183 52 8 356 345 319 311 306 304 306 311 312 309 315 312 310 309 307 303 314 303
153 155 157 153 163 158 170 185 187 116 79 244 294 319 316 305 298 296 298 303 304 306 311 315 306 310 306 299 297 297 311 307
148 152 147 152 157 170 184 209 172 162 211 281 284 286 280 283 290 295 299 302 302 300 293 292 297 301 306 313 304 304 299 302
149 150 152 154 157 159 171 163 172 256 286 295 287 298 290 288 294 295 297 295 295 301 303 295 291 291 296 298 298 298 301 303
159 162 159 160 157 150 139 132 99 290 287 300 304 299 303 304 307 305 304 301 298 298 293 287 288 289 289 292 292 291 293 297
181 176 171 166 158 148 136 145 291 293 296 295 300 303 301 303 299 296 295 294 293 296 290 282 285 290 291 288 287 289 294 297